contact:dominique.lefevre@mio.osupytheas.fr, maurice.libes@osupytheas.fr, didier.mallarino@osupytheas.fr
Project:EMSO http://www.emso-fr.org/EMSO-France
Depth: 2436.0 m
Title:EMSO Ligure Ouest : Data MII capteur AQUADOPP
Date,Latitude,Longitude,X_East,Y_North,Z_Up,Amplitude_X,Amplitude_Y,Amplitude_Z,Batterie,SoundSpeed,Heading,Pitch,Roll,Pressure,TIS,Speed,Direction
, degrees North, degrees East, m.s-1, m.s-1,m.s-1, 1, 1, 1, Volt, m.s-1, degree, degree, degree, dbar, degree_C, m.s-1, degree
2023-12-28T00:04:03,42.805,6.029,-0.024,0.015,0.003,106.0,105.0,104.0,13.4,1505.2,3.0,-0.7,1.8,2471.581,13.29,0.028,302.0
2023-12-28T00:07:03,42.805,6.029,-0.035,0.029,-0.046,104.0,105.0,103.0,13.4,1505.2,350.9,-0.8,1.8,2471.606,13.29,0.045,309.6
2023-12-28T00:10:03,42.805,6.029,-0.01,0.012,-0.009,104.0,106.0,103.0,13.4,1505.2,349.6,-0.8,1.8,2471.598,13.29,0.015,320.2
2023-12-28T00:13:03,42.805,6.029,-0.006,-0.013,-0.035,105.0,107.0,102.0,13.4,1505.2,349.1,-0.8,1.9,2471.543,13.29,0.014,204.8
2023-12-28T00:16:03,42.805,6.029,-0.015,0.0,-0.046,105.0,104.0,103.0,13.3,1505.2,350.9,-0.8,1.8,2471.567,13.29,0.015,270.0
2023-12-28T00:19:03,42.805,6.029,0.009,0.016,0.011,105.0,105.0,102.0,13.3,1505.2,348.3,-0.8,1.8,2471.575,13.29,0.018,29.4
2023-12-28T00:22:03,42.805,6.029,-0.008,0.008,-0.024,105.0,106.0,103.0,13.4,1505.2,351.9,-0.7,1.8,2471.552,13.29,0.011,315.0
2023-12-28T00:25:03,42.805,6.029,0.0,0.009,0.0,105.0,107.0,102.0,13.3,1505.2,350.2,-0.8,1.8,2471.563,13.29,0.009,0.0
2023-12-28T00:28:03,42.805,6.029,-0.007,0.003,-0.043,105.0,106.0,102.0,13.4,1505.2,347.6,-0.8,1.8,2471.545,13.29,0.007,293.2
2023-12-28T00:31:03,42.805,6.029,0.001,0.003,0.003,106.0,105.0,102.0,13.4,1505.2,355.6,-0.8,1.8,2471.56,13.29,0.003,18.4
2023-12-28T00:34:03,42.805,6.029,-0.012,-0.005,0.0,104.0,104.0,104.0,13.4,1505.2,358.4,-0.7,1.8,2471.554,13.29,0.013,247.4
2023-12-28T00:37:03,42.805,6.029,0.0,0.013,-0.006,106.0,105.0,103.0,13.4,1505.2,0.0,-0.8,1.8,2471.528,13.29,0.013,0.0
2023-12-28T00:40:03,42.805,6.029,0.005,0.01,-0.028,105.0,105.0,102.0,13.4,1505.2,342.4,-0.7,1.8,2471.546,13.29,0.011,26.6
2023-12-28T00:43:03,42.805,6.029,0.007,0.019,-0.029,104.0,108.0,103.0,13.3,1505.2,347.9,-0.8,1.8,2471.509,13.29,0.02,20.2
2023-12-28T00:46:03,42.805,6.029,0.002,0.008,-0.004,106.0,104.0,103.0,13.4,1505.2,354.9,-0.8,1.8,2471.511,13.29,0.008,14.0
2023-12-28T00:49:03,42.805,6.029,0.0,0.025,-0.015,104.0,105.0,103.0,13.4,1505.2,346.8,-0.7,1.8,2471.531,13.29,0.025,0.0
2023-12-28T00:52:03,42.805,6.029,-0.007,0.023,-0.006,106.0,106.0,103.0,13.3,1505.2,354.0,-0.8,1.8,2471.536,13.29,0.024,343.1
2023-12-28T00:55:03,42.805,6.029,0.003,0.005,0.011,105.0,105.0,102.0,13.4,1505.2,355.3,-0.7,1.8,2471.553,13.29,0.005,31.0
2023-12-28T00:58:03,42.805,6.029,0.003,0.028,-0.022,105.0,106.0,104.0,13.4,1505.2,0.8,-0.8,1.8,2471.506,13.29,0.028,6.1
2023-12-28T01:04:03,42.805,6.029,-0.012,0.021,0.005,106.0,105.0,103.0,13.4,1505.2,358.4,-0.8,1.8,2471.549,13.29,0.024,330.3
2023-12-28T01:07:03,42.805,6.029,-0.016,0.013,0.016,105.0,104.0,102.0,13.4,1505.2,348.5,-0.8,1.8,2471.554,13.29,0.02,309.1
2023-12-28T01:10:03,42.805,6.029,-0.01,-0.002,-0.017,106.0,104.0,105.0,13.3,1505.2,355.0,-0.8,1.9,2471.574,13.29,0.01,258.7
2023-12-28T01:13:03,42.805,6.029,0.0,0.008,0.012,106.0,104.0,103.0,13.3,1505.2,348.8,-0.8,1.8,2471.533,13.29,0.008,0.0
2023-12-28T01:16:03,42.805,6.029,-0.009,-0.001,-0.04,105.0,105.0,103.0,13.3,1505.2,353.1,-0.8,1.8,2471.513,13.29,0.009,263.7
2023-12-28T01:19:03,42.805,6.029,0.003,-0.001,-0.038,106.0,104.0,104.0,13.3,1505.2,349.1,-0.8,1.8,2471.537,13.29,0.003,108.4
2023-12-28T01:22:03,42.805,6.029,-0.025,0.013,-0.028,104.0,105.0,102.0,13.4,1505.2,353.3,-0.8,1.8,2471.535,13.29,0.028,297.5
2023-12-28T01:25:03,42.805,6.029,0.008,0.007,0.01,103.0,105.0,103.0,13.4,1505.2,342.4,-0.8,1.8,2471.546,13.29,0.01,48.8
2023-12-28T01:28:03,42.805,6.029,-0.003,0.018,0.015,106.0,104.0,103.0,13.3,1505.2,357.5,-0.8,1.8,2471.51,13.29,0.018,350.5
2023-12-28T01:31:03,42.805,6.029,0.003,0.011,0.0,105.0,104.0,103.0,13.4,1505.2,4.6,-0.8,1.8,2471.51,13.29,0.011,15.3
2023-12-28T01:34:03,42.805,6.029,-0.012,0.0,-0.021,105.0,106.0,102.0,13.3,1505.2,347.3,-0.7,1.8,2471.527,13.29,0.012,270.0
2023-12-28T01:37:03,42.805,6.029,-0.01,0.024,-0.017,105.0,106.0,104.0,13.4,1505.2,3.2,-0.8,1.8,2471.488,13.29,0.026,337.4
2023-12-28T01:40:03,42.805,6.029,-0.004,0.014,0.0,108.0,105.0,103.0,13.4,1505.2,348.2,-0.8,1.8,2471.519,13.29,0.014,344.1
2023-12-28T01:43:03,42.805,6.029,-0.01,-0.007,-0.012,105.0,105.0,103.0,13.4,1505.2,350.8,-0.8,1.8,2471.534,13.29,0.012,235.0
2023-12-28T01:46:03,42.805,6.029,-0.009,0.021,-0.004,105.0,106.0,103.0,13.3,1505.2,353.7,-0.7,1.8,2471.581,13.29,0.022,336.8
2023-12-28T01:49:03,42.805,6.029,-0.006,0.001,-0.017,106.0,106.0,103.0,13.4,1505.2,339.4,-0.8,1.8,2471.54,13.29,0.006,279.5
2023-12-28T01:52:03,42.805,6.029,0.017,0.005,-0.005,106.0,106.0,103.0,13.4,1505.2,358.4,-0.8,1.8,2471.563,13.29,0.017,73.6
2023-12-28T01:55:03,42.805,6.029,-0.009,-0.003,-0.017,106.0,105.0,103.0,13.4,1505.2,345.9,-0.8,1.8,2471.54,13.29,0.009,251.6
2023-12-28T01:58:03,42.805,6.029,-0.004,0.005,-0.019,105.0,105.0,104.0,13.4,1505.2,348.6,-0.8,1.8,2471.513,13.29,0.006,321.3
2023-12-28T02:04:03,42.805,6.029,-0.013,0.012,-0.02,105.0,104.0,102.0,13.4,1505.2,342.0,-0.8,1.8,2471.566,13.29,0.017,312.7
2023-12-28T02:07:03,42.805,6.029,0.021,0.026,0.018,104.0,104.0,103.0,13.4,1505.2,356.8,-0.8,1.9,2471.532,13.29,0.033,38.9
2023-12-28T02:10:03,42.805,6.029,0.0,0.009,-0.011,105.0,104.0,103.0,13.4,1505.2,357.8,-0.8,1.8,2471.582,13.29,0.009,0.0
2023-12-28T02:13:03,42.805,6.029,-0.024,0.033,-0.044,105.0,105.0,103.0,13.4,1505.2,354.0,-0.7,1.8,2471.581,13.29,0.04,324.0
2023-12-28T02:16:03,42.805,6.029,-0.006,0.0,0.011,105.0,104.0,103.0,13.3,1505.2,353.3,-0.8,1.8,2471.592,13.29,0.006,270.0
2023-12-28T02:19:03,42.805,6.029,0.005,0.005,-0.012,105.0,104.0,103.0,13.4,1505.2,352.7,-0.8,1.8,2471.552,13.29,0.007,45.0
2023-12-28T02:22:03,42.805,6.029,-0.013,0.012,-0.013,105.0,107.0,104.0,13.4,1505.2,355.2,-0.8,1.8,2471.552,13.29,0.017,312.7
2023-12-28T02:25:03,42.805,6.029,-0.005,0.036,-0.003,105.0,105.0,103.0,13.4,1505.2,348.3,-0.8,1.8,2471.533,13.29,0.036,352.1
2023-12-28T02:28:03,42.805,6.029,0.007,0.009,-0.013,105.0,105.0,103.0,13.3,1505.2,347.9,-0.8,1.8,2471.534,13.29,0.011,37.9
2023-12-28T02:31:03,42.805,6.029,-0.021,-0.001,0.001,105.0,105.0,104.0,13.4,1505.2,4.7,-0.8,1.8,2471.558,13.29,0.021,267.3
2023-12-28T02:34:03,42.805,6.029,0.007,0.0,-0.017,106.0,105.0,104.0,13.3,1505.2,342.8,-0.8,1.8,2471.521,13.29,0.007,90.0
2023-12-28T02:37:03,42.805,6.029,-0.029,0.014,-0.033,106.0,105.0,103.0,13.3,1505.2,349.3,-0.7,1.8,2471.552,13.29,0.032,295.8
2023-12-28T02:40:03,42.805,6.029,0.004,0.008,-0.017,106.0,106.0,103.0,13.3,1505.2,349.8,-0.8,1.8,2471.505,13.29,0.008,26.6
2023-12-28T02:43:03,42.805,6.029,-0.011,0.004,-0.04,105.0,106.0,105.0,13.3,1505.2,346.8,-0.8,1.8,2471.586,13.29,0.011,290.0
2023-12-28T02:46:03,42.805,6.029,-0.003,0.02,-0.015,106.0,106.0,101.0,13.4,1505.2,357.5,-0.8,1.8,2471.543,13.29,0.02,351.5
2023-12-28T02:49:03,42.805,6.029,-0.012,-0.013,-0.02,105.0,106.0,103.0,13.4,1505.2,339.1,-0.8,1.8,2471.563,13.29,0.017,222.7
2023-12-28T02:52:03,42.805,6.029,-0.003,0.028,-0.02,104.0,105.0,103.0,13.4,1505.2,347.6,-0.8,1.8,2471.517,13.29,0.028,353.9
2023-12-28T02:55:03,42.805,6.029,-0.019,0.014,-0.026,105.0,106.0,103.0,13.3,1505.2,346.1,-0.7,1.8,2471.525,13.29,0.023,306.4
2023-12-28T02:58:03,42.805,6.029,-0.006,-0.002,-0.038,105.0,105.0,102.0,13.3,1505.2,352.9,-0.7,1.8,2471.53,13.29,0.006,251.6
2023-12-28T03:04:03,42.805,6.029,-0.001,0.007,0.003,107.0,105.0,103.0,13.3,1505.2,345.7,-0.8,1.8,2471.62,13.29,0.007,351.9
2023-12-28T03:07:03,42.805,6.029,0.0,0.023,0.019,105.0,105.0,102.0,13.4,1505.2,348.0,-0.8,1.8,2471.595,13.29,0.023,0.0
2023-12-28T03:10:03,42.805,6.029,-0.009,0.0,-0.017,105.0,105.0,104.0,13.3,1505.2,0.0,-0.8,1.8,2471.552,13.29,0.009,270.0
2023-12-28T03:13:04,42.805,6.029,0.01,0.001,-0.023,107.0,104.0,103.0,13.4,1505.2,348.0,-0.8,1.8,2471.577,13.29,0.01,84.3
2023-12-28T03:16:03,42.805,6.029,-0.001,0.022,0.001,103.0,105.0,103.0,13.3,1505.2,351.5,-0.8,1.8,2471.594,13.29,0.022,357.4
2023-12-28T03:19:03,42.805,6.029,-0.008,0.012,-0.014,105.0,105.0,103.0,13.4,1505.2,1.4,-0.7,1.8,2471.549,13.29,0.014,326.3
2023-12-28T03:22:03,42.805,6.029,-0.002,0.028,-0.003,106.0,105.0,103.0,13.4,1505.2,357.5,-0.8,1.8,2471.561,13.29,0.028,355.9
2023-12-28T03:25:03,42.805,6.029,-0.013,0.005,-0.017,105.0,106.0,103.0,13.4,1505.2,353.3,-0.8,1.8,2471.593,13.29,0.013,291.0
2023-12-28T03:28:03,42.805,6.029,-0.007,0.006,-0.013,104.0,105.0,103.0,13.4,1505.2,359.2,-0.7,1.8,2471.516,13.29,0.009,310.6
2023-12-28T03:31:03,42.805,6.029,0.01,0.005,-0.003,105.0,104.0,103.0,13.4,1505.2,344.1,-0.8,1.8,2471.552,13.29,0.011,63.4
2023-12-28T03:34:03,42.805,6.029,-0.004,0.024,-0.023,107.0,105.0,103.0,13.3,1505.2,359.1,-0.7,1.8,2471.586,13.29,0.024,350.5
2023-12-28T03:37:03,42.805,6.029,-0.037,0.034,-0.013,105.0,105.0,104.0,13.3,1505.2,346.9,-0.8,1.8,2471.597,13.29,0.05,312.6
2023-12-28T03:40:03,42.805,6.029,-0.001,0.029,-0.005,105.0,105.0,102.0,13.4,1505.2,351.0,-0.8,1.8,2471.579,13.29,0.029,358.0
2023-12-28T03:43:03,42.805,6.029,-0.008,0.021,-0.026,105.0,105.0,103.0,13.3,1505.2,348.2,-0.8,1.8,2471.588,13.29,0.022,339.1
2023-12-28T03:46:03,42.805,6.029,-0.019,0.02,0.005,104.0,106.0,103.0,13.3,1505.2,356.7,-0.7,1.8,2471.578,13.29,0.027,316.5
2023-12-28T03:49:03,42.805,6.029,-0.008,0.023,-0.023,105.0,105.0,103.0,13.3,1505.2,347.7,-0.8,1.8,2471.549,13.29,0.024,340.8
2023-12-28T03:52:03,42.805,6.029,0.016,0.032,0.015,105.0,105.0,102.0,13.4,1505.2,344.0,-0.8,1.8,2471.554,13.29,0.035,26.6
2023-12-28T03:55:03,42.805,6.029,-0.01,0.029,-0.015,105.0,106.0,104.0,13.3,1505.2,355.3,-0.8,1.8,2471.612,13.29,0.03,341.0
2023-12-28T03:58:03,42.805,6.029,-0.02,0.017,0.002,106.0,105.0,104.0,13.3,1505.2,359.1,-0.8,1.8,2471.583,13.29,0.026,310.4
2023-12-28T04:04:03,42.805,6.029,-0.01,0.006,0.004,109.0,105.0,103.0,13.4,1505.2,346.4,-0.8,1.8,2471.626,13.29,0.011,301.0
2023-12-28T04:07:03,42.805,6.029,0.003,0.008,-0.05,105.0,105.0,102.0,13.4,1505.2,347.7,-0.8,1.8,2471.631,13.29,0.008,20.6
2023-12-28T04:10:03,42.805,6.029,-0.022,0.028,-0.009,105.0,106.0,104.0,13.4,1505.2,358.5,-0.8,1.8,2471.614,13.29,0.035,321.8
2023-12-28T04:13:03,42.805,6.029,-0.001,0.022,-0.012,106.0,105.0,103.0,13.4,1505.2,351.2,-0.8,1.8,2471.636,13.29,0.022,357.4
2023-12-28T04:16:03,42.805,6.029,-0.005,0.018,-0.01,106.0,107.0,102.0,13.3,1505.2,348.3,-0.7,1.8,2471.578,13.29,0.018,344.5
2023-12-28T04:19:03,42.805,6.029,0.001,0.01,-0.009,106.0,104.0,103.0,13.4,1505.2,350.8,-0.8,1.8,2471.627,13.29,0.01,5.7
2023-12-28T04:22:03,42.805,6.029,-0.026,0.018,-0.023,105.0,105.0,103.0,13.3,1505.2,1.4,-0.8,1.8,2471.584,13.29,0.031,304.7
2023-12-28T04:25:03,42.805,6.029,-0.009,0.031,-0.012,105.0,105.0,103.0,13.4,1505.2,342.0,-0.8,1.8,2471.635,13.29,0.032,343.8
2023-12-28T04:28:03,42.805,6.029,-0.02,0.029,0.028,105.0,104.0,103.0,13.3,1505.2,355.0,-0.8,1.8,2471.634,13.29,0.035,325.4
2023-12-28T04:31:03,42.805,6.029,0.001,0.007,-0.006,106.0,105.0,102.0,13.4,1505.2,355.7,-0.8,1.8,2471.619,13.29,0.007,8.1
2023-12-28T04:34:03,42.805,6.029,0.01,-0.002,-0.019,105.0,105.0,103.0,13.4,1505.2,346.3,-0.8,1.8,2471.608,13.29,0.01,101.3
2023-12-28T04:37:03,42.805,6.029,-0.022,0.031,-0.021,105.0,105.0,103.0,13.3,1505.2,352.4,-0.8,1.8,2471.604,13.29,0.038,324.6
2023-12-28T04:40:03,42.805,6.029,0.014,0.008,0.005,105.0,106.0,103.0,13.4,1505.2,349.9,-0.8,1.8,2471.589,13.29,0.016,60.3
2023-12-28T04:43:03,42.805,6.029,-0.009,0.004,-0.024,106.0,106.0,103.0,13.3,1505.2,357.8,-0.8,1.8,2471.657,13.29,0.009,294.0
2023-12-28T04:46:03,42.805,6.029,-0.01,0.011,-0.002,106.0,105.0,104.0,13.3,1505.2,341.0,-0.8,1.8,2471.621,13.29,0.014,317.7
2023-12-28T04:49:03,42.805,6.029,-0.029,0.017,-0.007,104.0,105.0,103.0,13.4,1505.2,354.5,-0.8,1.8,2471.64,13.29,0.033,300.4
2023-12-28T04:52:03,42.805,6.029,-0.036,0.018,-0.022,105.0,105.0,104.0,13.4,1505.2,358.3,-0.7,1.8,2471.626,13.29,0.04,296.6
2023-12-28T04:55:03,42.805,6.029,-0.017,0.026,-0.029,106.0,104.0,102.0,13.4,1505.2,358.5,-0.7,1.8,2471.642,13.29,0.031,326.8
2023-12-28T04:58:03,42.805,6.029,-0.023,0.021,-0.02,107.0,105.0,103.0,13.3,1505.2,339.8,-0.8,1.8,2471.651,13.29,0.031,312.4
2023-12-28T05:04:03,42.805,6.029,0.0,0.021,-0.025,105.0,105.0,103.0,13.3,1505.2,351.1,-0.8,1.8,2471.726,13.29,0.021,0.0
2023-12-28T05:07:03,42.805,6.029,-0.005,0.006,0.003,106.0,105.0,102.0,13.4,1505.2,349.9,-0.7,1.8,2471.671,13.29,0.007,320.2
2023-12-28T05:10:03,42.805,6.029,-0.005,0.0,-0.003,105.0,104.0,103.0,13.4,1505.2,3.2,-0.8,1.8,2471.687,13.29,0.005,270.0
2023-12-28T05:13:03,42.805,6.029,0.001,0.017,-0.006,105.0,105.0,103.0,13.4,1505.2,339.7,-0.8,1.8,2471.648,13.29,0.017,3.4
2023-12-28T05:16:03,42.805,6.029,0.0,0.003,-0.047,105.0,106.0,103.0,13.4,1505.2,356.9,-0.8,1.8,2471.65,13.29,0.003,0.0
2023-12-28T05:19:03,42.805,6.029,-0.01,0.006,-0.024,106.0,105.0,103.0,13.4,1505.2,346.8,-0.7,1.8,2471.693,13.29,0.011,301.0
2023-12-28T05:22:03,42.805,6.029,-0.004,0.022,-0.026,106.0,104.0,104.0,13.3,1505.2,349.9,-0.8,1.8,2471.691,13.29,0.022,349.7
2023-12-28T05:25:03,42.805,6.029,-0.009,0.022,-0.023,106.0,105.0,103.0,13.4,1505.2,358.4,-0.8,1.8,2471.678,13.29,0.023,337.8
2023-12-28T05:28:03,42.805,6.029,0.01,0.026,-0.035,106.0,106.0,103.0,13.4,1505.2,2.2,-0.7,1.8,2471.709,13.29,0.027,21.0
2023-12-28T05:31:03,42.805,6.029,-0.004,0.009,0.007,107.0,105.0,103.0,13.4,1505.2,340.8,-0.8,1.8,2471.682,13.29,0.009,336.0
2023-12-28T05:34:03,42.805,6.029,-0.012,-0.001,-0.023,105.0,105.0,103.0,13.4,1505.2,351.1,-0.8,1.8,2471.673,13.29,0.012,265.2
2023-12-28T05:37:03,42.805,6.029,-0.014,0.0,-0.035,106.0,106.0,104.0,13.4,1505.2,0.0,-0.7,1.8,2471.711,13.29,0.014,270.0
2023-12-28T05:40:03,42.805,6.029,-0.005,0.006,0.0,105.0,105.0,103.0,13.3,1505.2,351.3,-0.8,1.8,2471.663,13.29,0.007,320.2
2023-12-28T05:43:03,42.805,6.029,-0.003,0.002,-0.014,105.0,104.0,102.0,13.3,1505.2,353.9,-0.8,1.8,2471.652,13.29,0.003,303.7
2023-12-28T05:46:03,42.805,6.029,-0.006,0.011,-0.001,106.0,104.0,105.0,13.3,1505.2,345.5,-0.7,1.8,2471.676,13.29,0.012,331.4
2023-12-28T05:49:03,42.805,6.029,-0.022,0.01,-0.025,105.0,105.0,105.0,13.3,1505.2,359.1,-0.7,1.8,2471.689,13.29,0.024,294.4
2023-12-28T05:52:03,42.805,6.029,0.001,0.023,0.015,105.0,104.0,103.0,13.4,1505.2,354.1,-0.8,1.8,2471.73,13.29,0.023,2.5
2023-12-28T05:55:03,42.805,6.029,0.003,0.019,-0.003,105.0,105.0,103.0,13.4,1505.2,352.8,-0.7,1.8,2471.701,13.29,0.019,9.0
2023-12-28T05:58:03,42.805,6.029,-0.007,0.026,-0.012,105.0,106.0,103.0,13.4,1505.2,356.6,-0.8,1.8,2471.697,13.29,0.026,344.9
2023-12-28T06:04:03,42.805,6.029,0.003,0.015,0.019,106.0,105.0,103.0,13.4,1505.2,2.3,-0.8,1.8,2471.773,13.29,0.015,11.3
2023-12-28T06:07:03,42.805,6.029,-0.003,0.009,-0.047,105.0,104.0,103.0,13.4,1505.2,3.8,-0.7,1.8,2471.771,13.29,0.009,341.6
2023-12-28T06:10:03,42.805,6.029,-0.004,0.0,-0.051,105.0,105.0,102.0,13.4,1505.2,359.2,-0.8,1.8,2471.773,13.29,0.004,270.0
2023-12-28T06:13:03,42.805,6.029,-0.02,0.001,-0.032,106.0,105.0,104.0,13.4,1505.2,340.4,-0.8,1.8,2471.812,13.29,0.02,272.9
2023-12-28T06:16:03,42.805,6.029,0.017,0.022,-0.009,106.0,105.0,102.0,13.3,1505.2,355.4,-0.7,1.8,2471.769,13.29,0.027,37.7
2023-12-28T06:19:03,42.805,6.029,-0.014,0.03,-0.018,104.0,105.0,104.0,13.4,1505.2,345.0,-0.8,1.8,2471.799,13.29,0.033,335.0
2023-12-28T06:22:03,42.805,6.029,-0.006,0.01,0.001,105.0,105.0,103.0,13.4,1505.2,1.6,-0.8,1.8,2471.783,13.29,0.011,329.0
2023-12-28T06:25:03,42.805,6.029,0.01,0.002,-0.019,105.0,105.0,102.0,13.4,1505.2,0.7,-0.8,1.9,2471.762,13.29,0.01,78.7
2023-12-28T06:28:03,42.805,6.029,-0.003,0.008,-0.012,105.0,105.0,102.0,13.4,1505.2,342.7,-0.7,1.8,2471.778,13.29,0.008,339.4
2023-12-28T06:31:03,42.805,6.029,0.01,0.017,-0.025,106.0,104.0,102.0,13.3,1505.2,353.1,-0.7,1.8,2471.718,13.29,0.019,30.5
2023-12-28T06:34:03,42.805,6.029,0.001,0.012,0.007,106.0,106.0,102.0,13.4,1505.2,354.6,-0.8,1.8,2471.749,13.29,0.012,4.8
2023-12-28T06:37:03,42.805,6.029,-0.014,0.008,-0.017,105.0,106.0,103.0,13.4,1505.2,349.4,-0.7,1.8,2471.729,13.29,0.016,299.7
2023-12-28T06:40:03,42.805,6.029,-0.007,0.023,-0.016,105.0,105.0,103.0,13.4,1505.2,3.6,-0.8,1.8,2471.762,13.29,0.024,343.1
2023-12-28T06:43:03,42.805,6.029,0.008,0.02,-0.028,106.0,105.0,103.0,13.4,1505.2,345.1,-0.8,1.8,2471.721,13.29,0.021,21.8
2023-12-28T06:46:03,42.805,6.029,-0.008,0.006,-0.002,106.0,106.0,104.0,13.4,1505.2,346.3,-0.8,1.8,2471.789,13.29,0.01,306.9
2023-12-28T06:49:03,42.805,6.029,-0.003,0.005,-0.013,105.0,104.0,104.0,13.3,1505.2,355.7,-0.8,1.8,2471.764,13.29,0.005,329.0
2023-12-28T06:52:03,42.805,6.029,-0.003,0.01,-0.016,105.0,106.0,103.0,13.3,1505.2,2.2,-0.8,1.8,2471.727,13.29,0.01,343.3
2023-12-28T06:55:03,42.805,6.029,-0.006,0.003,-0.032,105.0,105.0,104.0,13.3,1505.2,344.2,-0.8,1.8,2471.762,13.29,0.006,296.6
2023-12-28T06:58:03,42.805,6.029,-0.013,0.007,0.01,106.0,105.0,104.0,13.4,1505.2,349.4,-0.8,1.8,2471.765,13.29,0.014,298.3
2023-12-28T07:04:03,42.805,6.029,0.008,0.022,0.011,106.0,105.0,103.0,13.4,1505.2,4.0,-0.8,1.8,2471.817,13.29,0.023,20.0
2023-12-28T07:07:03,42.805,6.029,-0.024,0.018,-0.014,106.0,104.0,102.0,13.4,1505.2,343.9,-0.8,1.8,2471.849,13.29,0.03,306.9
2023-12-28T07:10:03,42.805,6.029,-0.017,0.013,-0.009,105.0,105.0,102.0,13.3,1505.2,352.5,-0.8,1.8,2471.843,13.29,0.021,307.4
2023-12-28T07:13:03,42.805,6.029,0.001,0.025,-0.022,106.0,105.0,103.0,13.4,1505.2,359.1,-0.7,1.8,2471.811,13.29,0.025,2.3
2023-12-28T07:16:03,42.805,6.029,-0.021,0.012,0.005,106.0,106.0,104.0,13.4,1505.2,345.7,-0.8,1.8,2471.814,13.29,0.024,299.7
2023-12-28T07:19:03,42.805,6.029,0.001,0.007,-0.001,105.0,106.0,103.0,13.3,1505.2,352.6,-0.8,1.8,2471.806,13.29,0.007,8.1
2023-12-28T07:22:03,42.805,6.029,0.003,0.002,-0.009,105.0,105.0,103.0,13.3,1505.2,3.9,-0.8,1.8,2471.792,13.29,0.003,56.3
2023-12-28T07:25:03,42.805,6.029,-0.015,0.006,-0.022,105.0,105.0,103.0,13.3,1505.2,344.6,-0.8,1.8,2471.819,13.29,0.016,291.8
2023-12-28T07:28:03,42.805,6.029,0.01,-0.007,0.006,105.0,104.0,103.0,13.4,1505.2,349.3,-0.7,1.8,2471.781,13.29,0.012,125.0
2023-12-28T07:31:03,42.805,6.029,-0.005,-0.004,-0.026,106.0,105.0,104.0,13.4,1505.2,343.5,-0.8,1.8,2471.794,13.29,0.006,231.3
2023-12-28T07:34:03,42.805,6.029,0.001,0.004,-0.013,105.0,104.0,104.0,13.3,1505.2,351.8,-0.8,1.8,2471.769,13.29,0.004,14.0
2023-12-28T07:37:03,42.805,6.029,-0.02,0.017,-0.002,105.0,105.0,103.0,13.4,1505.2,349.4,-0.8,1.8,2471.781,13.29,0.026,310.4
2023-12-28T07:40:03,42.805,6.029,-0.006,0.012,-0.004,106.0,106.0,104.0,13.4,1505.2,350.5,-0.8,1.8,2471.785,13.29,0.013,333.4
2023-12-28T07:43:03,42.805,6.029,-0.011,0.002,-0.004,106.0,104.0,103.0,13.4,1505.2,2.2,-0.8,1.8,2471.789,13.29,0.011,280.3
2023-12-28T07:46:03,42.805,6.029,-0.012,0.007,0.004,105.0,105.0,102.0,13.4,1505.2,342.0,-0.8,1.8,2471.78,13.29,0.013,300.3
2023-12-28T07:49:03,42.805,6.029,0.005,0.013,-0.025,104.0,105.0,104.0,13.4,1505.2,349.4,-0.8,1.8,2471.756,13.29,0.013,21.0
2023-12-28T07:52:03,42.805,6.029,0.007,0.007,-0.007,104.0,106.0,103.0,13.4,1505.2,2.4,-0.7,1.8,2471.803,13.29,0.009,45.0
2023-12-28T07:55:03,42.805,6.029,-0.019,0.011,-0.014,105.0,105.0,103.0,13.3,1505.2,341.3,-0.7,1.8,2471.826,13.29,0.021,300.1
2023-12-28T07:58:03,42.805,6.029,-0.006,0.019,-0.008,106.0,104.0,103.0,13.4,1505.2,349.1,-0.8,1.8,2471.762,13.29,0.019,342.5
2023-12-28T08:04:03,42.805,6.029,-0.009,0.019,-0.031,105.0,105.0,103.0,13.3,1505.2,358.3,-0.8,1.8,2471.855,13.29,0.021,334.7
2023-12-28T08:07:03,42.805,6.029,0.039,0.021,-0.001,106.0,105.0,101.0,13.3,1505.2,348.8,-0.8,1.8,2471.833,13.29,0.044,61.7
2023-12-28T08:10:03,42.805,6.029,-0.015,0.013,-0.02,105.0,106.0,103.0,13.4,1505.2,350.8,-0.8,1.8,2471.828,13.29,0.019,310.9
2023-12-28T08:13:03,42.805,6.029,0.007,0.009,-0.012,106.0,104.0,103.0,13.4,1505.2,355.9,-0.8,1.8,2471.848,13.29,0.011,37.9
2023-12-28T08:16:03,42.805,6.029,-0.017,0.03,0.006,106.0,106.0,103.0,13.4,1505.2,343.8,-0.8,1.8,2471.836,13.29,0.034,330.5
2023-12-28T08:19:03,42.805,6.029,0.009,-0.002,-0.059,107.0,105.0,103.0,13.4,1505.2,356.0,-0.8,1.8,2471.808,13.29,0.009,102.5
2023-12-28T08:22:03,42.805,6.029,0.004,0.011,0.034,105.0,105.0,103.0,13.4,1505.2,347.7,-0.8,1.8,2471.809,13.29,0.011,20.0
2023-12-28T08:25:03,42.805,6.029,-0.005,-0.001,-0.037,108.0,103.0,102.0,13.4,1505.2,340.4,-0.8,1.8,2471.822,13.29,0.005,258.7
2023-12-28T08:28:03,42.805,6.029,0.0,0.026,-0.022,106.0,106.0,103.0,13.4,1505.2,354.4,-0.7,1.8,2471.802,13.29,0.026,0.0
2023-12-28T08:31:03,42.805,6.029,0.005,0.022,-0.027,104.0,105.0,105.0,13.4,1505.2,348.5,-0.8,1.8,2471.788,13.29,0.022,12.8
2023-12-28T08:34:03,42.805,6.029,0.003,-0.002,0.01,105.0,106.0,102.0,13.4,1505.2,351.8,-0.8,1.8,2471.834,13.29,0.003,123.7
2023-12-28T08:37:03,42.805,6.029,-0.004,0.036,0.006,106.0,105.0,102.0,13.4,1505.2,3.8,-0.8,1.8,2471.818,13.29,0.036,353.7
2023-12-28T08:40:03,42.805,6.029,-0.007,0.007,0.002,104.0,105.0,103.0,13.3,1505.2,344.8,-0.8,1.8,2471.803,13.29,0.009,315.0
2023-12-28T08:43:03,42.805,6.029,0.001,0.021,-0.012,105.0,105.0,103.0,13.4,1505.2,356.7,-0.8,1.8,2471.798,13.29,0.021,2.7
2023-12-28T08:46:03,42.805,6.029,0.014,0.015,0.01,106.0,105.0,102.0,13.4,1505.2,349.6,-0.8,1.8,2471.833,13.29,0.02,43.0
2023-12-28T08:49:03,42.805,6.029,-0.011,-0.002,-0.009,104.0,105.0,103.0,13.4,1505.2,0.8,-0.8,1.8,2471.829,13.29,0.011,259.7
2023-12-28T08:52:03,42.805,6.029,-0.026,0.005,-0.001,103.0,105.0,103.0,13.4,1505.2,342.7,-0.8,1.8,2471.818,13.29,0.026,280.9
2023-12-28T08:55:03,42.805,6.029,-0.013,0.005,-0.026,105.0,105.0,102.0,13.4,1505.2,356.0,-0.8,1.8,2471.832,13.29,0.013,291.0
2023-12-28T08:58:03,42.805,6.029,-0.006,0.019,-0.017,105.0,104.0,103.0,13.4,1505.2,0.0,-0.8,1.8,2471.823,13.29,0.019,342.5
2023-12-28T09:04:03,42.805,6.029,-0.016,-0.006,-0.011,104.0,105.0,103.0,13.4,1505.2,341.5,-0.7,1.8,2471.852,13.29,0.017,249.4
2023-12-28T09:07:03,42.805,6.029,0.011,0.019,-0.016,106.0,105.0,103.0,13.3,1505.2,340.6,-0.7,1.8,2471.828,13.29,0.021,30.1
2023-12-28T09:10:03,42.805,6.029,0.003,0.012,-0.026,105.0,105.0,104.0,13.3,1505.2,3.1,-0.7,1.8,2471.843,13.29,0.012,14.0
2023-12-28T09:13:03,42.805,6.029,0.005,0.009,-0.022,105.0,106.0,102.0,13.4,1505.2,339.4,-0.8,1.8,2471.833,13.29,0.01,29.1
2023-12-28T09:16:03,42.805,6.029,-0.007,0.019,-0.002,106.0,106.0,103.0,13.4,1505.2,348.5,-0.8,1.8,2471.827,13.29,0.02,339.8
2023-12-28T09:19:03,42.805,6.029,-0.009,0.013,-0.002,106.0,105.0,102.0,13.3,1505.2,0.0,-0.7,1.8,2471.789,13.29,0.015,325.3
2023-12-28T09:22:03,42.805,6.029,-0.003,0.018,-0.012,106.0,105.0,103.0,13.4,1505.2,3.9,-0.8,1.8,2471.812,13.29,0.018,350.5
2023-12-28T09:25:03,42.805,6.029,0.0,0.003,-0.016,107.0,106.0,103.0,13.3,1505.2,340.8,-0.8,1.8,2471.817,13.29,0.003,0.0
2023-12-28T09:28:03,42.805,6.029,0.006,0.008,-0.005,106.0,106.0,103.0,13.4,1505.2,349.2,-0.7,1.8,2471.792,13.29,0.01,36.9
2023-12-28T09:31:03,42.805,6.029,-0.022,-0.004,-0.012,106.0,104.0,104.0,13.4,1505.2,354.8,-0.7,1.8,2471.817,13.29,0.022,259.7
2023-12-28T09:34:03,42.805,6.029,-0.004,0.017,-0.007,106.0,106.0,103.0,13.4,1505.2,354.8,-0.7,1.8,2471.802,13.29,0.017,346.8
2023-12-28T09:37:03,42.805,6.029,-0.023,0.014,-0.029,104.0,106.0,103.0,13.4,1505.2,341.3,-0.7,1.8,2471.818,13.29,0.026,301.3
2023-12-28T09:40:03,42.805,6.029,-0.011,0.022,0.004,106.0,104.0,103.0,13.4,1505.2,355.4,-0.8,1.8,2471.796,13.29,0.024,333.4
2023-12-28T09:43:03,42.805,6.029,-0.002,-0.001,0.0,106.0,105.0,103.0,13.3,1505.2,359.1,-0.8,1.8,2471.804,13.29,0.002,243.4
2023-12-28T09:46:03,42.805,6.029,-0.02,0.021,0.009,105.0,106.0,103.0,13.4,1505.2,340.5,-0.8,1.8,2471.779,13.29,0.028,316.4
2023-12-28T09:49:03,42.805,6.029,-0.012,0.013,0.007,106.0,106.0,102.0,13.3,1505.2,346.1,-0.8,1.8,2471.794,13.29,0.017,317.3
2023-12-28T09:52:03,42.805,6.029,0.0,0.005,-0.009,106.0,104.0,102.0,13.4,1505.2,359.2,-0.7,1.8,2471.81,13.29,0.005,0.0
2023-12-28T09:55:03,42.805,6.029,-0.008,0.012,0.0,105.0,105.0,102.0,13.3,1505.2,347.7,-0.8,1.8,2471.795,13.29,0.014,326.3
2023-12-28T09:58:03,42.805,6.029,-0.024,0.018,-0.006,105.0,105.0,104.0,13.4,1505.2,348.6,-0.8,1.8,2471.784,13.29,0.03,306.9